Date,TemperatureHighF,TemperatureAvgF,TemperatureLowF,DewpointHighF,DewpointAvgF,DewpointLowF,HumidityHigh,HumidityAvg,HumidityLow,PressureMaxIn,PressureMinIn,WindSpeedMaxMPH,WindSpeedAvgMPH,GustSpeedMaxMPH,PrecipitationSumIn
2013-7-1,86.7,77.8,72.3,69.4,55.3,46.2,75,47,28,30.04,29.85,18,2,18,0.00
2013-7-2,88.5,76.7,61.9,53.4,47.8,42.1,74,40,20,30.10,29.93,18,1,20,0.00
2013-7-3,92.7,78.5,62.1,53.1,46.1,40.1,67,35,17,30.02,29.84,13,1,16,0.00
2013-7-4,94.3,80.8,68.7,59.4,49.9,45.5,49,36,20,29.93,29.78,18,2,18,0.00
2013-7-5,98.8,84.9,67.8,57.7,52.1,47.1,62,35,18,29.91,29.72,21,2,25,0.00
2013-7-6,98.2,84.7,71.2,61.5,55.4,48.9,68,40,21,29.86,29.71,18,2,22,0.00
2013-7-7,98.1,85.9,71.8,66.2,59.2,54.7,68,43,26,29.90,29.78,19,2,19,0.00
2013-7-8,97.3,84.9,75.2,70.7,66.6,58.1,77,56,35,29.99,29.86,20,3,28,0.00
2013-7-9,98.8,86.1,73.6,70.0,64.1,57.7,82,51,30,30.04,29.88,19,2,19,0.00
2013-7-10,102.2,88.6,73.9,70.3,63.5,57.4,75,46,25,30.01,29.80,16,2,16,0.00
2013-7-11,100.2,89.0,75.4,68.0,62.5,57.6,68,43,26,29.90,29.74,16,2,16,0.00
2013-7-12,101.5,89.6,75.9,67.3,59.9,52.0,62,39,20,29.87,29.75,17,2,20,0.00
2013-7-13,102.7,89.7,74.8,64.2,55.7,48.2,57,34,17,29.91,29.75,11,1,14,0.00
2013-7-14,100.6,84.8,68.4,65.1,58.8,53.6,89,44,23,29.85,29.71,25,4,25,0.02
2013-7-15,69.3,66.5,63.1,67.3,64.5,61.2,96,93,87,30.01,29.82,16,2,16,1.99
2013-7-16,79.0,71.0,67.1,72.9,69.0,65.7,97,94,77,30.12,29.98,18,1,18,1.48
2013-7-17,82.6,73.9,69.6,72.9,69.4,67.5,95,86,62,30.17,30.06,21,1,21,0.09
2013-7-18,85.3,76.0,69.6,71.1,69.1,67.3,95,80,57,30.14,29.97,19,0,20,0.09
2013-7-19,92.1,81.3,70.0,72.3,68.1,61.7,95,68,37,30.02,29.84,11,0,11,0.02
2013-7-20,94.8,82.7,71.1,70.7,66.9,61.2,87,61,34,29.91,29.75,11,1,12,0.00
2013-7-21,96.1,83.5,73.0,71.8,69.0,65.1,85,64,38,29.87,29.75,20,1,20,0.00
2013-7-22,95.4,84.2,73.6,73.9,70.7,69.1,89,66,45,29.89,29.76,16,1,18,0.00
2013-7-23,97.2,86.1,76.5,74.7,70.9,64.4,86,62,44,29.87,29.74,14,1,17,0.00
2013-7-24,98.1,86.5,73.0,72.7,67.2,61.2,76,54,35,29.90,29.78,11,1,17,0.00
2013-7-25,98.4,86.2,75.9,72.5,69.5,66.9,78,59,40,29.95,29.84,15,1,16,0.00
2013-7-26,97.5,84.4,77.5,71.4,68.0,64.9,75,59,40,29.94,29.81,23,2,23,0.00
2013-7-27,91.0,80.6,71.4,68.4,62.7,51.8,83,58,28,29.98,29.83,18,1,18,0.00
2013-7-28,95.0,81.9,66.9,69.1,65.3,60.1,87,60,37,29.90,29.74,13,1,15,0.00
2013-7-29,98.4,87.0,78.3,73.8,67.9,57.9,80,55,32,29.87,29.78,17,2,17,0.00
2013-7-30,100.0,87.8,78.1,71.4,67.6,58.3,76,53,35,29.97,29.83,15,1,15,0.00
2013-7-31,102.4,88.4,75.2,70.9,66.9,61.9,78,51,32,30.00,29.84,15,1,15,0.00